Location: Albany
(35.0000°S, 118.0000°E)
Time: 23:51:10
(UTC-04:00)

Atlas Centaur 2 - Pass Details

Date: 26 August 2017
Orbit: 459 x 1313 km, 30.4° (Epoch: 25 September)

Event Time Altitude Azimuth Distance (km) Brightness Sun altitude
Exits shadow 18:02:37 - 282° (WNW) 1,808 3.4 -7.2°
Reaches altitude 10° 18:03:05 10° 285° (WNW) 1,630 3.2 -7.1°
Maximum altitude 18:06:22 32° 350° (N) 817 2.2 -6.4°
Drops below altitude 10° 18:09:39 10° 54° (NE) 1,630 4.9 -5.8°
Sets 18:12:01 0° 64° (ENE) 2,558 6.5 -5.3°
